{"data":{"norad_id":52092,"intl_designator":"2022-029E","name":"STARLINK-3716","alt_names":[],"object_type":"PAYLOAD","status":"ACTIVE","operator":null,"country":"US","launch_date":"2022-03-19","launch_site_code":"AFETR","launch_vehicle":null,"mission":null,"orbit_class":"UNKNOWN","rcs_meters":null,"size_class":null,"mass_kg":null,"dimensions":null,"purposes":["comms"],"wikipedia_slug":null,"has_3d_model":false,"image_url":null,"decayed_at":null,"tle_current":{"epoch":"2026-09-20T04:35:01.766688Z","epoch_age_seconds":82229,"freshness":"FRESH","line1":"1 52092U 22029E   26263.19099267  .00003311  00000+0  91909-4 0  9994","line2":"2 52092  53.1629 286.4825 0001691  78.3678 281.7517 15.39899401250149","mean_motion":15.39899401,"eccentricity":0.0001691,"inclination_deg":53.1629,"raan_deg":286.4825,"arg_perigee_deg":78.3678,"mean_anomaly_deg":281.7517,"bstar":9.1909e-5,"rev_number":25014,"period_min":93.512602126144,"perigee_km":445.25249534444,"apogee_km":447.56055596482,"semimajor_km":6824.5435256546,"source":"CELESTRAK","updated_at":"2026-09-20T09:00:39.984146Z"}}}